Location: Unspecified
(0.0000°N, 0.0000°E)
Time: 13:56:37
(UTC+00:00)

Vanguard 2 - Pass Details

Date: 22 September 2019
Orbit: 554 x 2937 km, 32.9° (Epoch: 13 October)

Event Time Altitude Azimuth Distance (km) Brightness Sun altitude
Rises 03:24:33 0° 289° (WNW) 6,407 - -37.1°
Reaches altitude 10° 03:34:26 10° 320° (NW) 4,755 - -34.6°
Maximum altitude 03:37:25 11° 333° (NNW) 4,429 - -33.9°
Exits shadow 03:37:52 11° 335° (NNW) 4,393 11.1 -33.8°
Drops below altitude 10° 03:40:10 10° 347° (NNW) 4,262 11.2 -33.2°
Sets 03:47:04 0° 21° (NNE) 4,559 11.7 -31.5°
